Weather History for KOTM - April, 2012

Change the Weather History Date:

Monday, April 23, 2012

  Actual Average Record
Temperature  
Mean Temperature 50 °F 54 °F  
Max Temperature 63 °F 65 °F 86 °F (1960)
Min Temperature 37 °F 42 °F 26 °F (1927)
Degree Days  
Heating Degree Days 15 12  
Month to date heating degree days 289 362  
Since 1 July heating degree days 4890 6058  
Cooling Degree Days 0 1  
Month to date cooling degree days 12 3  
Year to date cooling degree days 44 4  
Moisture  
Dew Point 39 °F    
Average Humidity 72    
Maximum Humidity 100    
Minimum Humidity 44    
Precipitation  
Precipitation T in 0.13 in 2.04 in (1955)
Month to date precipitation 3.20 2.47  
Year to date precipitation 7.48 6.89  
Sea Level Pressure  
Sea Level Pressure 30.09 in    
Wind  
Wind Speed 11 mph (NW)    
Max Wind Speed 23 mph    
Max Gust Speed 29 mph    
Visibility 9 miles    
Events      
T = Trace of Precipitation, MM = Missing Value Source: NWS Daily Summary

Daily Weather History Graph

Daily Weather History Graph

Search for Another Location

Airport or City:

Trip Planner

Search our weather history database for the weather conditions in past years. The results will help you decide how hot, cold, wet, or windy it might be!

Date:

Astronomy

Apr. 23, 2012 Rise Set
Actual Time 6:17 AM CDT 7:58 PM CDT
Civil Twilight 5:48 AM CDT 8:28 PM CDT
Nautical Twilight 5:13 AM CDT 9:03 PM CDT
Astronomical Twilight 4:35 AM CDT 9:41 PM CDT
Moon 7:28 AM CDT (4/23) 10:30 PM CDT (4/23)
Length of Visible Light 14h 39m
Length of Day
13h 41m
Waxing Crescent, 5% of the Moon is Illuminated
Apr 23
Waxing Crescent
Apr 29
First Quarter
May 5
Full
May 12
Last Quarter
May 20
New

Hourly Weather History & Observations

Time (CDT) Temp. Windchill Dew Point Humidity Pressure Visibility Wind Dir Wind Speed Gust Speed Precip Events Conditions
12:53 AM 41.0 °F 35.2 °F 36.0 °F 82% 30.18 in 10.0 mi NNW 9.2 mph - 0.00 in   Clear
1:53 AM 41.0 °F 34.7 °F 37.0 °F 86% 30.17 in 10.0 mi NW 10.4 mph - N/A   Clear
2:53 AM 41.0 °F 35.2 °F 37.9 °F 89% 30.17 in 10.0 mi NW 9.2 mph - N/A   Clear
3:53 AM 41.0 °F 35.8 °F 39.0 °F 93% 30.16 in 9.0 mi NW 8.1 mph - N/A   Overcast
4:53 AM 39.0 °F 32.8 °F 37.0 °F 93% 30.16 in 8.0 mi NW 9.2 mph - N/A   Clear
5:53 AM 37.9 °F 32.7 °F 37.0 °F 97% 30.16 in 6.0 mi WNW 6.9 mph - N/A   Clear
6:53 AM 39.0 °F 34.0 °F 37.0 °F 93% 30.17 in 4.0 mi WNW 6.9 mph - N/A   Clear
7:53 AM 43.0 °F 38.8 °F 41.0 °F 93% 30.17 in 7.0 mi NW 6.9 mph - N/A   Clear
8:53 AM 46.9 °F - 43.0 °F 86% 30.18 in 10.0 mi NW 10.4 mph - 0.00 in   Clear
9:53 AM 51.1 °F - 43.0 °F 74% 30.17 in 10.0 mi NNW 10.4 mph - N/A   Clear
10:53 AM 55.0 °F - 45.0 °F 69% 30.16 in 10.0 mi NNW 13.8 mph - N/A   Partly Cloudy
11:53 AM 55.0 °F - 41.0 °F 59% 30.15 in 10.0 mi NW 16.1 mph 23.0 mph N/A   Mostly Cloudy
12:53 PM 57.0 °F - 39.9 °F 53% 30.12 in 10.0 mi NW 18.4 mph - N/A   Mostly Cloudy
1:53 PM 59.0 °F - 41.0 °F 51% 30.09 in 10.0 mi North 12.7 mph - N/A   Mostly Cloudy
2:53 PM 60.1 °F - 39.9 °F 47% 30.07 in 10.0 mi NNW 18.4 mph 28.8 mph N/A   Mostly Cloudy
3:53 PM 59.0 °F - 39.0 °F 48% 30.05 in 10.0 mi North 17.3 mph 23.0 mph N/A   Partly Cloudy
4:53 PM 59.0 °F - 37.9 °F 46% 30.03 in 10.0 mi NNW 17.3 mph - N/A   Scattered Clouds
5:53 PM 61.0 °F - 39.0 °F 44% 30.00 in 10.0 mi NW 15.0 mph 24.2 mph N/A   Mostly Cloudy
6:53 PM 59.0 °F - 37.9 °F 46% 29.99 in 10.0 mi NNW 12.7 mph - N/A   Clear
7:53 PM 52.0 °F - 39.0 °F 61% 29.97 in 10.0 mi NW 6.9 mph - N/A   Clear
8:53 PM 51.1 °F - 39.0 °F 63% 29.96 in 10.0 mi WSW 4.6 mph - N/A   Clear
9:53 PM 46.0 °F 43.1 °F 39.0 °F 76% 29.96 in 10.0 mi WSW 5.8 mph - N/A   Clear
10:53 PM 45.0 °F 42.6 °F 37.9 °F 76% 29.94 in 10.0 mi SW 4.6 mph - N/A   Clear
11:53 PM 46.0 °F 42.5 °F 37.9 °F 73% 29.91 in 10.0 mi WSW 6.9 mph - 0.00 in   Clear